owner,sensor,date,latitude,longitude,vertical_datum,wind_speed,wind_to_direction,wind_speed_of_gust,qcFlag 
DISL,ioos:station:DISL:DISL:1,2016-06-01T00:00:00Z,30.2513,-88.0778,9.68,2.0,202.7,-9999.0,'1111122,1111122,1111122' 
DISL,ioos:station:DISL:DISL:1,2016-06-01T00:30:00Z,30.2513,-88.0778,9.68,0.99,227.3,-9999.0,'1111122,1111122,1111122' 
DISL,ioos:station:DISL:DISL:1,2016-06-01T01:00:00Z,30.2513,-88.0778,9.68,1.66,258.4,-9999.0,'1111122,1111122,1111122' 
DISL,ioos:station:DISL:DISL:1,2016-06-01T01:30:00Z,30.2513,-88.0778,9.68,1.54,239.6,-9999.0,'1111122,1111122,1111122' 
DISL,ioos:station:DISL:DISL:1,2016-06-01T02:00:00Z,30.2513,-88.0778,9.68,1.89,253.9,-9999.0,'1111122,1111122,1111122' 
DISL,ioos:station:DISL:DISL:1,2016-06-01T02:30:00Z,30.2513,-88.0778,9.68,1.81,237.9,-9999.0,'1111122,1111122,1111122' 
DISL,ioos:station:DISL:DISL:1,2016-06-01T03:00:00Z,30.2513,-88.0778,9.68,1.76,241.4,-9999.0,'1111122,1111122,1111122' 
DISL,ioos:station:DISL:DISL:1,2016-06-01T03:30:00Z,30.2513,-88.0778,9.68,1.64,247.0,-9999.0,'1111122,1111122,1111122' 
DISL,ioos:station:DISL:DISL:1,2016-06-01T04:00:00Z,30.2513,-88.0778,9.68,1.61,267.5,-9999.0,'1111122,1111122,1111122' 
DISL,ioos:station:DISL:DISL:1,2016-06-01T04:30:00Z,30.2513,-88.0778,9.68,1.99,263.1,-9999.0,'1111122,1111122,1111122' 
DISL,ioos:station:DISL:DISL:1,2016-06-01T05:00:00Z,30.2513,-88.0778,9.68,1.5,270.3,-9999.0,'1111122,1111122,1111122' 
DISL,ioos:station:DISL:DISL:1,2016-06-01T05:30:00Z,30.2513,-88.0778,9.68,1.28,262.7,-9999.0,'1111122,1111122,1111122' 
DISL,ioos:station:DISL:DISL:1,2016-06-01T06:00:00Z,30.2513,-88.0778,9.68,1.42,257.5,-9999.0,'1111122,1111122,1111122' 
DISL,ioos:station:DISL:DISL:1,2016-06-01T06:30:00Z,30.2513,-88.0778,9.68,1.44,253.1,-9999.0,'1111122,1111122,1111122' 
DISL,ioos:station:DISL:DISL:1,2016-06-01T07:00:00Z,30.2513,-88.0778,9.68,1.86,270.8,-9999.0,'1111122,1111122,1111122' 
DISL,ioos:station:DISL:DISL:1,2016-06-01T07:30:00Z,30.2513,-88.0778,9.68,1.53,260.2,-9999.0,'1111122,1111122,1111122' 
DISL,ioos:station:DISL:DISL:1,2016-06-01T08:00:00Z,30.2513,-88.0778,9.68,1.0,268.9,-9999.0,'1111122,1111122,1111122' 
DISL,ioos:station:DISL:DISL:1,2016-06-01T08:30:00Z,30.2513,-88.0778,9.68,1.48,264.8,-9999.0,'1111122,1111122,1111122' 
DISL,ioos:station:DISL:DISL:1,2016-06-01T09:00:00Z,30.2513,-88.0778,9.68,1.68,269.8,-9999.0,'1111122,1111122,1111122' 
DISL,ioos:station:DISL:DISL:1,2016-06-01T09:30:00Z,30.2513,-88.0778,9.68,1.28,262.9,-9999.0,'1111122,1111122,1111122' 
DISL,ioos:station:DISL:DISL:1,2016-06-01T10:00:00Z,30.2513,-88.0778,9.68,1.36,259.2,-9999.0,'1111122,1111122,1111122' 
DISL,ioos:station:DISL:DISL:1,2016-06-01T10:30:00Z,30.2513,-88.0778,9.68,1.31,275.4,-9999.0,'1111122,1111122,1111122' 
DISL,ioos:station:DISL:DISL:1,2016-06-01T11:00:00Z,30.2513,-88.0778,9.68,1.27,261.3,-9999.0,'1111122,1111122,1111122' 
DISL,ioos:station:DISL:DISL:1,2016-06-01T11:30:00Z,30.2513,-88.0778,9.68,1.1,272.1,-9999.0,'1111122,1111122,1111122' 
DISL,ioos:station:DISL:DISL:1,2016-06-01T12:00:00Z,30.2513,-88.0778,9.68,1.02,243.0,-9999.0,'1111122,1111122,1111122' 
DISL,ioos:station:DISL:DISL:1,2016-06-01T12:30:00Z,30.2513,-88.0778,9.68,1.8,343.7,-9999.0,'1111122,1111122,1111122' 
DISL,ioos:station:DISL:DISL:1,2016-06-01T13:00:00Z,30.2513,-88.0778,9.68,1.39,9.08,-9999.0,'1111122,1111122,1111122' 
DISL,ioos:station:DISL:DISL:1,2016-06-01T13:30:00Z,30.2513,-88.0778,9.68,3.03,49.15,-9999.0,'1111122,1111122,1111122' 
DISL,ioos:station:DISL:DISL:1,2016-06-01T14:00:00Z,30.2513,-88.0778,9.68,2.71,69.77,-9999.0,'1111122,1111122,1111122' 
DISL,ioos:station:DISL:DISL:1,2016-06-01T14:30:00Z,30.2513,-88.0778,9.68,3.13,69.77,-9999.0,'1111122,1111122,1111122' 
DISL,ioos:station:DISL:DISL:1,2016-06-01T15:00:00Z,30.2513,-88.0778,9.68,2.65,65.85,-9999.0,'1111122,1111122,1111122' 
DISL,ioos:station:DISL:DISL:1,2016-06-01T15:30:00Z,30.2513,-88.0778,9.68,1.66,82.4,-9999.0,'1111122,1111122,1111122' 
DISL,ioos:station:DISL:DISL:1,2016-06-01T16:00:00Z,30.2513,-88.0778,9.68,1.86,114.6,-9999.0,'1111122,1111122,1111122' 
DISL,ioos:station:DISL:DISL:1,2016-06-01T16:30:00Z,30.2513,-88.0778,9.68,2.16,150.2,-9999.0,'1111122,1111122,1111122' 
DISL,ioos:station:DISL:DISL:1,2016-06-01T17:00:00Z,30.2513,-88.0778,9.68,2.59,189.9,-9999.0,'1111122,1111122,1111122' 
DISL,ioos:station:DISL:DISL:1,2016-06-01T17:30:00Z,30.2513,-88.0778,9.68,2.82,204.7,-9999.0,'1111122,1111122,1111122' 
DISL,ioos:station:DISL:DISL:1,2016-06-01T18:00:00Z,30.2513,-88.0778,9.68,2.95,191.3,-9999.0,'1111122,1111122,1111122' 
DISL,ioos:station:DISL:DISL:1,2016-06-01T18:30:00Z,30.2513,-88.0778,9.68,2.65,187.6,-9999.0,'1111122,1111122,1111122' 
DISL,ioos:station:DISL:DISL:1,2016-06-01T19:00:00Z,30.2513,-88.0778,9.68,3.33,182.0,-9999.0,'1111122,1111122,1111122' 
DISL,ioos:station:DISL:DISL:1,2016-06-01T19:30:00Z,30.2513,-88.0778,9.68,3.14,175.5,-9999.0,'1111122,1111122,1111122' 
DISL,ioos:station:DISL:DISL:1,2016-06-01T20:00:00Z,30.2513,-88.0778,9.68,2.82,177.3,-9999.0,'1111122,1111122,1111122' 
DISL,ioos:station:DISL:DISL:1,2016-06-01T20:30:00Z,30.2513,-88.0778,9.68,2.73,188.1,-9999.0,'1111122,1111122,1111122' 
DISL,ioos:station:DISL:DISL:1,2016-06-01T21:00:00Z,30.2513,-88.0778,9.68,2.59,188.2,-9999.0,'1111122,1111122,1111122' 
DISL,ioos:station:DISL:DISL:1,2016-06-01T21:30:00Z,30.2513,-88.0778,9.68,2.69,183.1,-9999.0,'1111122,1111122,1111122' 
DISL,ioos:station:DISL:DISL:1,2016-06-01T22:00:00Z,30.2513,-88.0778,9.68,1.99,195.0,-9999.0,'1111122,1111122,1111122' 
DISL,ioos:station:DISL:DISL:1,2016-06-01T22:30:00Z,30.2513,-88.0778,9.68,2.36,203.6,-9999.0,'1111122,1111122,1111122' 
DISL,ioos:station:DISL:DISL:1,2016-06-01T23:00:00Z,30.2513,-88.0778,9.68,2.3,199.8,-9999.0,'1111122,1111122,1111122' 
DISL,ioos:station:DISL:DISL:1,2016-06-01T23:30:00Z,30.2513,-88.0778,9.68,2.66,203.9,-9999.0,'1111122,1111122,1111122' 
DISL,ioos:station:DISL:DISL:1,2016-06-02T00:00:00Z,30.2513,-88.0778,9.68,1.98,206.5,-9999.0,'1111122,1111122,1111122' 
DISL,ioos:station:DISL:DISL:1,2016-06-02T00:30:00Z,30.2513,-88.0778,9.68,2.75,204.1,-9999.0,'1111122,1111122,1111122' 
DISL,ioos:station:DISL:DISL:1,2016-06-02T01:00:00Z,30.2513,-88.0778,9.68,1.8,219.0,-9999.0,'1111122,1111122,1111122' 
DISL,ioos:station:DISL:DISL:1,2016-06-02T01:30:00Z,30.2513,-88.0778,9.68,1.53,214.6,-9999.0,'1111122,1111122,1111122' 
DISL,ioos:station:DISL:DISL:1,2016-06-02T02:00:00Z,30.2513,-88.0778,9.68,1.28,215.3,-9999.0,'1111122,1111122,1111122' 
DISL,ioos:station:DISL:DISL:1,2016-06-02T02:30:00Z,30.2513,-88.0778,9.68,0.88,202.2,-9999.0,'1111122,1111122,1111122' 
DISL,ioos:station:DISL:DISL:1,2016-06-02T03:00:00Z,30.2513,-88.0778,9.68,0.87,170.0,-9999.0,'1111122,1111122,1111122' 
DISL,ioos:station:DISL:DISL:1,2016-06-02T03:30:00Z,30.2513,-88.0778,9.68,1.91,154.7,-9999.0,'1111122,1111122,1111122' 
DISL,ioos:station:DISL:DISL:1,2016-06-02T04:00:00Z,30.2513,-88.0778,9.68,1.62,165.1,-9999.0,'1111122,1111122,1111122' 
DISL,ioos:station:DISL:DISL:1,2016-06-02T04:30:00Z,30.2513,-88.0778,9.68,1.91,162.4,-9999.0,'1111122,1111122,1111122' 
DISL,ioos:station:DISL:DISL:1,2016-06-02T05:00:00Z,30.2513,-88.0778,9.68,1.99,161.1,-9999.0,'1111122,1111122,1111122' 
DISL,ioos:station:DISL:DISL:1,2016-06-02T05:30:00Z,30.2513,-88.0778,9.68,2.21,165.5,-9999.0,'1111122,1111122,1111122' 
DISL,ioos:station:DISL:DISL:1,2016-06-02T06:00:00Z,30.2513,-88.0778,9.68,1.88,157.6,-9999.0,'1111122,1111122,1111122' 
DISL,ioos:station:DISL:DISL:1,2016-06-02T06:30:00Z,30.2513,-88.0778,9.68,1.39,168.7,-9999.0,'1111122,1111122,1111122' 
DISL,ioos:station:DISL:DISL:1,2016-06-02T07:00:00Z,30.2513,-88.0778,9.68,1.21,171.9,-9999.0,'1111122,1111122,1111122' 
DISL,ioos:station:DISL:DISL:1,2016-06-02T07:30:00Z,30.2513,-88.0778,9.68,1.71,175.8,-9999.0,'1111122,1111122,1111122' 
DISL,ioos:station:DISL:DISL:1,2016-06-02T08:00:00Z,30.2513,-88.0778,9.68,1.65,189.4,-9999.0,'1111122,1111122,1111122' 
DISL,ioos:station:DISL:DISL:1,2016-06-02T08:30:00Z,30.2513,-88.0778,9.68,1.57,175.2,-9999.0,'1111122,1111122,1111122' 
DISL,ioos:station:DISL:DISL:1,2016-06-02T09:00:00Z,30.2513,-88.0778,9.68,1.53,170.4,-9999.0,'1111122,1111122,1111122' 
DISL,ioos:station:DISL:DISL:1,2016-06-02T09:30:00Z,30.2513,-88.0778,9.68,1.3,176.4,-9999.0,'1111122,1111122,1111122' 
DISL,ioos:station:DISL:DISL:1,2016-06-02T10:00:00Z,30.2513,-88.0778,9.68,1.21,197.0,-9999.0,'1111122,1111122,1111122' 
DISL,ioos:station:DISL:DISL:1,2016-06-02T10:30:00Z,30.2513,-88.0778,9.68,1.4,204.1,-9999.0,'1111122,1111122,1111122' 
DISL,ioos:station:DISL:DISL:1,2016-06-02T11:00:00Z,30.2513,-88.0778,9.68,0.99,214.7,-9999.0,'1111122,1111122,1111122' 
DISL,ioos:station:DISL:DISL:1,2016-06-02T11:30:00Z,30.2513,-88.0778,9.68,1.51,167.4,-9999.0,'1111122,1111122,1111122' 
DISL,ioos:station:DISL:DISL:1,2016-06-02T12:00:00Z,30.2513,-88.0778,9.68,1.65,156.3,-9999.0,'1111122,1111122,1111122' 
DISL,ioos:station:DISL:DISL:1,2016-06-02T12:30:00Z,30.2513,-88.0778,9.68,1.7,151.4,-9999.0,'1111122,1111122,1111122' 
DISL,ioos:station:DISL:DISL:1,2016-06-02T13:00:00Z,30.2513,-88.0778,9.68,1.71,163.3,-9999.0,'1111122,1111122,1111122' 
DISL,ioos:station:DISL:DISL:1,2016-06-02T13:30:00Z,30.2513,-88.0778,9.68,2.19,129.3,-9999.0,'1111122,1111122,1111122' 
DISL,ioos:station:DISL:DISL:1,2016-06-02T14:00:00Z,30.2513,-88.0778,9.68,2.65,131.6,-9999.0,'1111122,1111122,1111122' 
DISL,ioos:station:DISL:DISL:1,2016-06-02T14:30:00Z,30.2513,-88.0778,9.68,2.7,131.1,-9999.0,'1111122,1111122,1111122' 
DISL,ioos:station:DISL:DISL:1,2016-06-02T15:00:00Z,30.2513,-88.0778,9.68,2.49,137.2,-9999.0,'1111122,1111122,1111122' 
DISL,ioos:station:DISL:DISL:1,2016-06-02T15:30:00Z,30.2513,-88.0778,9.68,2.68,128.9,-9999.0,'1111122,1111122,1111122' 
DISL,ioos:station:DISL:DISL:1,2016-06-02T16:00:00Z,30.2513,-88.0778,9.68,3.04,135.5,-9999.0,'1111122,1111122,1111122' 
DISL,ioos:station:DISL:DISL:1,2016-06-02T16:30:00Z,30.2513,-88.0778,9.68,3.39,141.7,-9999.0,'1111122,1111122,1111122' 
DISL,ioos:station:DISL:DISL:1,2016-06-02T17:00:00Z,30.2513,-88.0778,9.68,3.65,147.3,-9999.0,'1111122,1111122,1111122' 
DISL,ioos:station:DISL:DISL:1,2016-06-02T17:30:00Z,30.2513,-88.0778,9.68,3.9,150.9,-9999.0,'1111122,1111122,1111122' 
DISL,ioos:station:DISL:DISL:1,2016-06-02T18:00:00Z,30.2513,-88.0778,9.68,3.8,137.6,-9999.0,'1111122,1111122,1111122' 
DISL,ioos:station:DISL:DISL:1,2016-06-02T18:30:00Z,30.2513,-88.0778,9.68,4.07,146.8,-9999.0,'1111122,1111122,1111122' 
DISL,ioos:station:DISL:DISL:1,2016-06-02T19:00:00Z,30.2513,-88.0778,9.68,4.74,144.4,-9999.0,'1111122,1111122,1111122' 
DISL,ioos:station:DISL:DISL:1,2016-06-02T19:30:00Z,30.2513,-88.0778,9.68,5.15,142.6,-9999.0,'1111122,1111122,1111122' 
DISL,ioos:station:DISL:DISL:1,2016-06-02T20:00:00Z,30.2513,-88.0778,9.68,5.25,143.2,-9999.0,'1111122,1111122,1111122' 
DISL,ioos:station:DISL:DISL:1,2016-06-02T20:30:00Z,30.2513,-88.0778,9.68,4.75,148.9,-9999.0,'1111122,1111122,1111122' 
DISL,ioos:station:DISL:DISL:1,2016-06-02T21:00:00Z,30.2513,-88.0778,9.68,4.46,148.7,-9999.0,'1111122,1111122,1111122' 
DISL,ioos:station:DISL:DISL:1,2016-06-02T21:30:00Z,30.2513,-88.0778,9.68,4.15,149.6,-9999.0,'1111122,1111122,1111122' 
DISL,ioos:station:DISL:DISL:1,2016-06-02T22:00:00Z,30.2513,-88.0778,9.68,3.58,154.9,-9999.0,'1111122,1111122,1111122' 
DISL,ioos:station:DISL:DISL:1,2016-06-02T22:30:00Z,30.2513,-88.0778,9.68,3.69,165.8,-9999.0,'1111122,1111122,1111122' 
DISL,ioos:station:DISL:DISL:1,2016-06-02T23:00:00Z,30.2513,-88.0778,9.68,3.1,169.4,-9999.0,'1111122,1111122,1111122' 
DISL,ioos:station:DISL:DISL:1,2016-06-02T23:30:00Z,30.2513,-88.0778,9.68,3.2,167.0,-9999.0,'1111122,1111122,1111122' 
DISL,ioos:station:DISL:DISL:1,2016-06-03T00:00:00Z,30.2513,-88.0778,9.68,3.1,160.1,-9999.0,'1111122,1111122,1111122' 
DISL,ioos:station:DISL:DISL:1,2016-06-03T00:30:00Z,30.2513,-88.0778,9.68,2.45,182.4,-9999.0,'1111122,1111122,1111122' 
DISL,ioos:station:DISL:DISL:1,2016-06-03T01:00:00Z,30.2513,-88.0778,9.68,1.78,178.8,-9999.0,'1111122,1111122,1111122' 
DISL,ioos:station:DISL:DISL:1,2016-06-03T01:30:00Z,30.2513,-88.0778,9.68,1.47,186.5,-9999.0,'1111122,1111122,1111122' 
DISL,ioos:station:DISL:DISL:1,2016-06-03T02:00:00Z,30.2513,-88.0778,9.68,1.84,165.4,-9999.0,'1111122,1111122,1111122' 
DISL,ioos:station:DISL:DISL:1,2016-06-03T02:30:00Z,30.2513,-88.0778,9.68,2.11,148.5,-9999.0,'1111122,1111122,1111122' 
DISL,ioos:station:DISL:DISL:1,2016-06-03T03:00:00Z,30.2513,-88.0778,9.68,2.62,155.1,-9999.0,'1111122,1111122,1111122' 
DISL,ioos:station:DISL:DISL:1,2016-06-03T03:30:00Z,30.2513,-88.0778,9.68,3.71,147.1,-9999.0,'1111122,1111122,1111122' 
DISL,ioos:station:DISL:DISL:1,2016-06-03T04:00:00Z,30.2513,-88.0778,9.68,2.99,163.2,-9999.0,'1111122,1111122,1111122' 
DISL,ioos:station:DISL:DISL:1,2016-06-03T04:30:00Z,30.2513,-88.0778,9.68,3.33,166.0,-9999.0,'1111122,1111122,1111122' 
DISL,ioos:station:DISL:DISL:1,2016-06-03T05:00:00Z,30.2513,-88.0778,9.68,4.03,158.8,-9999.0,'1111122,1111122,1111122' 
DISL,ioos:station:DISL:DISL:1,2016-06-03T05:30:00Z,30.2513,-88.0778,9.68,3.35,163.4,-9999.0,'1111122,1111122,1111122' 
DISL,ioos:station:DISL:DISL:1,2016-06-03T06:00:00Z,30.2513,-88.0778,9.68,3.15,158.9,-9999.0,'1111122,1111122,1111122' 
DISL,ioos:station:DISL:DISL:1,2016-06-03T06:30:00Z,30.2513,-88.0778,9.68,3.35,168.7,-9999.0,'1111122,1111122,1111122' 
DISL,ioos:station:DISL:DISL:1,2016-06-03T07:00:00Z,30.2513,-88.0778,9.68,3.19,151.2,-9999.0,'1111122,1111122,1111122' 
DISL,ioos:station:DISL:DISL:1,2016-06-03T07:30:00Z,30.2513,-88.0778,9.68,2.78,159.8,-9999.0,'1111122,1111122,1111122' 
DISL,ioos:station:DISL:DISL:1,2016-06-03T08:00:00Z,30.2513,-88.0778,9.68,2.46,175.7,-9999.0,'1111122,1111122,1111122' 
DISL,ioos:station:DISL:DISL:1,2016-06-03T08:30:00Z,30.2513,-88.0778,9.68,2.42,166.9,-9999.0,'1111122,1111122,1111122' 
DISL,ioos:station:DISL:DISL:1,2016-06-03T09:00:00Z,30.2513,-88.0778,9.68,2.56,173.4,-9999.0,'1111122,1111122,1111122' 
DISL,ioos:station:DISL:DISL:1,2016-06-03T09:30:00Z,30.2513,-88.0778,9.68,2.14,154.9,-9999.0,'1111122,1111122,1111122' 
DISL,ioos:station:DISL:DISL:1,2016-06-03T10:00:00Z,30.2513,-88.0778,9.68,2.79,149.4,-9999.0,'1111122,1111122,1111122' 
DISL,ioos:station:DISL:DISL:1,2016-06-03T10:30:00Z,30.2513,-88.0778,9.68,3.08,151.0,-9999.0,'1111122,1111122,1111122' 
DISL,ioos:station:DISL:DISL:1,2016-06-03T11:00:00Z,30.2513,-88.0778,9.68,2.75,146.7,-9999.0,'1111122,1111122,1111122' 
DISL,ioos:station:DISL:DISL:1,2016-06-03T11:30:00Z,30.2513,-88.0778,9.68,2.71,151.4,-9999.0,'1111122,1111122,1111122' 
DISL,ioos:station:DISL:DISL:1,2016-06-03T12:00:00Z,30.2513,-88.0778,9.68,3.44,151.1,-9999.0,'1111122,1111122,1111122' 
DISL,ioos:station:DISL:DISL:1,2016-06-03T12:30:00Z,30.2513,-88.0778,9.68,3.52,143.1,-9999.0,'1111122,1111122,1111122' 
DISL,ioos:station:DISL:DISL:1,2016-06-03T13:00:00Z,30.2513,-88.0778,9.68,3.2,135.1,-9999.0,'1111122,1111122,1111122' 
DISL,ioos:station:DISL:DISL:1,2016-06-03T13:30:00Z,30.2513,-88.0778,9.68,3.16,136.3,-9999.0,'1111122,1111122,1111122' 
DISL,ioos:station:DISL:DISL:1,2016-06-03T14:00:00Z,30.2513,-88.0778,9.68,3.74,128.8,-9999.0,'1111122,1111122,1111122' 
DISL,ioos:station:DISL:DISL:1,2016-06-03T14:30:00Z,30.2513,-88.0778,9.68,3.63,124.9,-9999.0,'1111122,1111122,1111122' 
DISL,ioos:station:DISL:DISL:1,2016-06-03T15:00:00Z,30.2513,-88.0778,9.68,4.44,123.1,-9999.0,'1111122,1111122,1111122' 
DISL,ioos:station:DISL:DISL:1,2016-06-03T15:30:00Z,30.2513,-88.0778,9.68,4.69,123.5,-9999.0,'1111122,1111122,1111122' 
DISL,ioos:station:DISL:DISL:1,2016-06-03T16:00:00Z,30.2513,-88.0778,9.68,4.39,142.6,-9999.0,'1111122,1111122,1111122' 
DISL,ioos:station:DISL:DISL:1,2016-06-03T16:30:00Z,30.2513,-88.0778,9.68,4.44,127.9,-9999.0,'1111122,1111122,1111122' 
DISL,ioos:station:DISL:DISL:1,2016-06-03T17:00:00Z,30.2513,-88.0778,9.68,3.97,124.0,-9999.0,'1111122,1111122,1111122' 
DISL,ioos:station:DISL:DISL:1,2016-06-03T17:30:00Z,30.2513,-88.0778,9.68,4.68,129.7,-9999.0,'1111122,1111122,1111122' 
DISL,ioos:station:DISL:DISL:1,2016-06-03T18:00:00Z,30.2513,-88.0778,9.68,4.83,127.1,-9999.0,'1111122,1111122,1111122' 
DISL,ioos:station:DISL:DISL:1,2016-06-03T18:30:00Z,30.2513,-88.0778,9.68,5.04,131.0,-9999.0,'1111122,1111122,1111122' 
DISL,ioos:station:DISL:DISL:1,2016-06-03T19:00:00Z,30.2513,-88.0778,9.68,5.19,133.5,-9999.0,'1111122,1111122,1111122' 
DISL,ioos:station:DISL:DISL:1,2016-06-03T19:30:00Z,30.2513,-88.0778,9.68,5.96,128.1,-9999.0,'1111122,1111122,1111122' 
DISL,ioos:station:DISL:DISL:1,2016-06-03T20:00:00Z,30.2513,-88.0778,9.68,5.51,135.1,-9999.0,'1111122,1111122,1111122' 
DISL,ioos:station:DISL:DISL:1,2016-06-03T20:30:00Z,30.2513,-88.0778,9.68,5.9,128.9,-9999.0,'1111122,1111122,1111122' 
DISL,ioos:station:DISL:DISL:1,2016-06-03T21:00:00Z,30.2513,-88.0778,9.68,5.95,128.2,-9999.0,'1111122,1111122,1111122' 
DISL,ioos:station:DISL:DISL:1,2016-06-03T21:30:00Z,30.2513,-88.0778,9.68,5.66,123.6,-9999.0,'1111122,1111122,1111122' 
DISL,ioos:station:DISL:DISL:1,2016-06-03T22:00:00Z,30.2513,-88.0778,9.68,5.86,132.0,-9999.0,'1111122,1111122,1111122' 
DISL,ioos:station:DISL:DISL:1,2016-06-03T22:30:00Z,30.2513,-88.0778,9.68,6.18,135.9,-9999.0,'1111122,1111122,1111122' 
DISL,ioos:station:DISL:DISL:1,2016-06-03T23:00:00Z,30.2513,-88.0778,9.68,6.12,132.7,-9999.0,'1111122,1111122,1111122' 
DISL,ioos:station:DISL:DISL:1,2016-06-03T23:30:00Z,30.2513,-88.0778,9.68,6.2,128.5,-9999.0,'1111122,1111122,1111122' 
DISL,ioos:station:DISL:DISL:1,2016-06-04T00:00:00Z,30.2513,-88.0778,9.68,6.32,134.8,-9999.0,'1111122,1111122,1111122' 
DISL,ioos:station:DISL:DISL:1,2016-06-04T00:30:00Z,30.2513,-88.0778,9.68,5.69,146.1,-9999.0,'1111122,1111122,1111122' 
DISL,ioos:station:DISL:DISL:1,2016-06-04T01:00:00Z,30.2513,-88.0778,9.68,5.71,144.7,-9999.0,'1111122,1111122,1111122' 
DISL,ioos:station:DISL:DISL:1,2016-06-04T01:30:00Z,30.2513,-88.0778,9.68,5.8,147.3,-9999.0,'1111122,1111122,1111122' 
DISL,ioos:station:DISL:DISL:1,2016-06-04T02:00:00Z,30.2513,-88.0778,9.68,6.11,145.3,-9999.0,'1111122,1111122,1111122' 
DISL,ioos:station:DISL:DISL:1,2016-06-04T02:30:00Z,30.2513,-88.0778,9.68,5.21,153.4,-9999.0,'1111122,1111122,1111122' 
DISL,ioos:station:DISL:DISL:1,2016-06-04T03:00:00Z,30.2513,-88.0778,9.68,4.19,147.4,-9999.0,'1111122,1111122,1111122' 
DISL,ioos:station:DISL:DISL:1,2016-06-04T03:30:00Z,30.2513,-88.0778,9.68,4.31,167.8,-9999.0,'1111122,1111122,1111122' 
DISL,ioos:station:DISL:DISL:1,2016-06-04T04:00:00Z,30.2513,-88.0778,9.68,3.83,176.9,-9999.0,'1111122,1111122,1111122' 
DISL,ioos:station:DISL:DISL:1,2016-06-04T04:30:00Z,30.2513,-88.0778,9.68,3.92,160.2,-9999.0,'1111122,1111122,1111122' 
DISL,ioos:station:DISL:DISL:1,2016-06-04T05:00:00Z,30.2513,-88.0778,9.68,3.19,161.1,-9999.0,'1111122,1111122,1111122' 
DISL,ioos:station:DISL:DISL:1,2016-06-04T05:30:00Z,30.2513,-88.0778,9.68,4.11,165.0,-9999.0,'1111122,1111122,1111122' 
DISL,ioos:station:DISL:DISL:1,2016-06-04T06:00:00Z,30.2513,-88.0778,9.68,3.77,165.2,-9999.0,'1111122,1111122,1111122' 
DISL,ioos:station:DISL:DISL:1,2016-06-04T06:30:00Z,30.2513,-88.0778,9.68,3.57,218.0,-9999.0,'1111122,1111122,1111122' 
DISL,ioos:station:DISL:DISL:1,2016-06-04T07:00:00Z,30.2513,-88.0778,9.68,2.22,222.8,-9999.0,'1111122,1111122,1111122' 
DISL,ioos:station:DISL:DISL:1,2016-06-04T07:30:00Z,30.2513,-88.0778,9.68,3.44,177.4,-9999.0,'1111122,1111122,1111122' 
DISL,ioos:station:DISL:DISL:1,2016-06-04T08:00:00Z,30.2513,-88.0778,9.68,6.4,157.7,-9999.0,'1111122,1111122,1111122' 
DISL,ioos:station:DISL:DISL:1,2016-06-04T08:30:00Z,30.2513,-88.0778,9.68,3.86,176.9,-9999.0,'1111122,1111122,1111122' 
DISL,ioos:station:DISL:DISL:1,2016-06-04T09:00:00Z,30.2513,-88.0778,9.68,3.14,143.4,-9999.0,'1111122,1111122,1111122' 
DISL,ioos:station:DISL:DISL:1,2016-06-04T09:30:00Z,30.2513,-88.0778,9.68,2.5,130.5,-9999.0,'1111122,1111122,1111122' 
DISL,ioos:station:DISL:DISL:1,2016-06-04T10:00:00Z,30.2513,-88.0778,9.68,3.2,135.5,-9999.0,'1111122,1111122,1111122' 
DISL,ioos:station:DISL:DISL:1,2016-06-04T10:30:00Z,30.2513,-88.0778,9.68,3.43,129.6,-9999.0,'1111122,1111122,1111122' 
DISL,ioos:station:DISL:DISL:1,2016-06-04T11:00:00Z,30.2513,-88.0778,9.68,2.48,134.7,-9999.0,'1111122,1111122,1111122' 
DISL,ioos:station:DISL:DISL:1,2016-06-04T11:30:00Z,30.2513,-88.0778,9.68,3.13,111.6,-9999.0,'1111122,1111122,1111122' 
DISL,ioos:station:DISL:DISL:1,2016-06-04T12:00:00Z,30.2513,-88.0778,9.68,4.37,112.4,-9999.0,'1111122,1111122,1111122' 
DISL,ioos:station:DISL:DISL:1,2016-06-04T12:30:00Z,30.2513,-88.0778,9.68,4.69,131.1,-9999.0,'1111122,1111122,1111122' 
DISL,ioos:station:DISL:DISL:1,2016-06-04T13:00:00Z,30.2513,-88.0778,9.68,4.61,96.4,-9999.0,'1111122,1111122,1111122' 
DISL,ioos:station:DISL:DISL:1,2016-06-04T13:30:00Z,30.2513,-88.0778,9.68,5.39,117.7,-9999.0,'1111122,1111122,1111122' 
DISL,ioos:station:DISL:DISL:1,2016-06-04T14:00:00Z,30.2513,-88.0778,9.68,3.7,98.0,-9999.0,'1111122,1111122,1111122' 
DISL,ioos:station:DISL:DISL:1,2016-06-04T14:30:00Z,30.2513,-88.0778,9.68,3.97,98.9,-9999.0,'1111122,1111122,1111122' 
DISL,ioos:station:DISL:DISL:1,2016-06-04T15:00:00Z,30.2513,-88.0778,9.68,3.31,129.5,-9999.0,'1111122,1111122,1111122' 
DISL,ioos:station:DISL:DISL:1,2016-06-04T15:30:00Z,30.2513,-88.0778,9.68,3.92,168.4,-9999.0,'1111122,1111122,1111122' 
DISL,ioos:station:DISL:DISL:1,2016-06-04T16:00:00Z,30.2513,-88.0778,9.68,4.87,159.0,-9999.0,'1111122,1111122,1111122' 
DISL,ioos:station:DISL:DISL:1,2016-06-04T16:30:00Z,30.2513,-88.0778,9.68,4.54,164.6,-9999.0,'1111122,1111122,1111122' 
DISL,ioos:station:DISL:DISL:1,2016-06-04T17:00:00Z,30.2513,-88.0778,9.68,4.74,158.8,-9999.0,'1111122,1111122,1111122' 
DISL,ioos:station:DISL:DISL:1,2016-06-04T17:30:00Z,30.2513,-88.0778,9.68,4.63,159.4,-9999.0,'1111122,1111122,1111122' 
DISL,ioos:station:DISL:DISL:1,2016-06-04T18:00:00Z,30.2513,-88.0778,9.68,5.63,144.1,-9999.0,'1111122,1111122,1111122' 
DISL,ioos:station:DISL:DISL:1,2016-06-04T18:30:00Z,30.2513,-88.0778,9.68,5.8,143.9,-9999.0,'1111122,1111122,1111122' 
DISL,ioos:station:DISL:DISL:1,2016-06-04T19:00:00Z,30.2513,-88.0778,9.68,6.2,139.9,-9999.0,'1111122,1111122,1111122' 
DISL,ioos:station:DISL:DISL:1,2016-06-04T19:30:00Z,30.2513,-88.0778,9.68,7.27,142.3,-9999.0,'1111122,1111122,1111122' 
DISL,ioos:station:DISL:DISL:1,2016-06-04T20:00:00Z,30.2513,-88.0778,9.68,7.93,136.8,-9999.0,'1111122,1111122,1111122' 
DISL,ioos:station:DISL:DISL:1,2016-06-04T20:30:00Z,30.2513,-88.0778,9.68,8.04,146.9,-9999.0,'1111122,1111122,1111122' 
DISL,ioos:station:DISL:DISL:1,2016-06-04T21:00:00Z,30.2513,-88.0778,9.68,6.94,139.9,-9999.0,'1111122,1111122,1111122' 
DISL,ioos:station:DISL:DISL:1,2016-06-04T21:30:00Z,30.2513,-88.0778,9.68,5.31,156.5,-9999.0,'1111122,1111122,1111122' 
DISL,ioos:station:DISL:DISL:1,2016-06-04T22:00:00Z,30.2513,-88.0778,9.68,5.25,154.6,-9999.0,'1111122,1111122,1111122' 
DISL,ioos:station:DISL:DISL:1,2016-06-04T22:30:00Z,30.2513,-88.0778,9.68,5.8,156.5,-9999.0,'1111122,1111122,1111122' 
DISL,ioos:station:DISL:DISL:1,2016-06-04T23:00:00Z,30.2513,-88.0778,9.68,4.65,155.8,-9999.0,'1111122,1111122,1111122' 
DISL,ioos:station:DISL:DISL:1,2016-06-04T23:30:00Z,30.2513,-88.0778,9.68,4.35,154.9,-9999.0,'1111122,1111122,1111122' 
DISL,ioos:station:DISL:DISL:1,2016-06-05T00:00:00Z,30.2513,-88.0778,9.68,5.53,145.4,-9999.0,'1111122,1111122,1111122' 
DISL,ioos:station:DISL:DISL:1,2016-06-05T00:30:00Z,30.2513,-88.0778,9.68,5.37,147.0,-9999.0,'1111122,1111122,1111122' 
DISL,ioos:station:DISL:DISL:1,2016-06-05T01:00:00Z,30.2513,-88.0778,9.68,5.28,151.7,-9999.0,'1111122,1111122,1111122' 
DISL,ioos:station:DISL:DISL:1,2016-06-05T01:30:00Z,30.2513,-88.0778,9.68,3.64,179.2,-9999.0,'1111122,1111122,1111122' 
DISL,ioos:station:DISL:DISL:1,2016-06-05T02:00:00Z,30.2513,-88.0778,9.68,3.14,156.3,-9999.0,'1111122,1111122,1111122' 
DISL,ioos:station:DISL:DISL:1,2016-06-05T02:30:00Z,30.2513,-88.0778,9.68,0.93,176.5,-9999.0,'1111122,1111122,1111122' 
DISL,ioos:station:DISL:DISL:1,2016-06-05T03:00:00Z,30.2513,-88.0778,9.68,0.46,186.9,-9999.0,'1111122,1111122,1111122' 
DISL,ioos:station:DISL:DISL:1,2016-06-05T03:30:00Z,30.2513,-88.0778,9.68,2.34,156.9,-9999.0,'1111122,1111122,1111122' 
DISL,ioos:station:DISL:DISL:1,2016-06-05T04:00:00Z,30.2513,-88.0778,9.68,2.66,161.5,-9999.0,'1111122,1111122,1111122' 